Regional Weather Roundup
Issued by NWS

Home | Current Version | Previous Version | Graphics & Text | Print | Product List | Glossary On
Versions: 1 2 3 4 5 6 7 8 9 10 11 12 13 14 15 16 17 18 19 20 21 22 23 24 25 26 27 28 29 30 31 32 33 34 35 36 37 38 39 40 41 42 43 44 45 46 47 48 49 50
000
ASUS43 KTOP 260708
RWRKS

WEATHER ROUNDUP FOR KANSAS
NATIONAL WEATHER SERVICE GOODLAND KS
200 AM CDT TUE JUL 26 2016

NOTE:  "FAIR" INDICATES FEW OR NO CLOUDS BELOW 12,000 FEET WITH NO
SIGNIFICANT WEATHER AND/OR OBSTRUCTIONS TO VISIBILITY.

KSZ001>006-013>018-027>032-041>047-260800-
NORTHWEST KANSAS

CITY           SKY/WX    TMP DP  RH WIND       PRES   REMARKS
GOODLAND       CLOUDY    69  64  84 SE12      30.13F
HAYS           PTCLDY    70  61  73 E6        30.10F
HILL CITY      PTCLDY    68  64  87 E5        30.11F
RUSSELL        CLOUDY    68  66  93 E5        30.09F
$$

KSZ061>065-074>080-084>089-260800-
SOUTHWEST KANSAS

CITY           SKY/WX    TMP DP  RH WIND       PRES   REMARKS
DODGE CITY     CLEAR     69  67  93 E7        30.11F
ELKHART          N/A     71  64  78 E7          N/A
GARDEN CITY    CLEAR     70  67  90 E10       30.11S
GREAT BEND     CLEAR     72  63  73 E6        30.10S
LIBERAL        PTCLDY    72  64  78 E14       30.12F
PRATT          PTCLDY    68  66  94 NE3       30.09F
$$

KSZ066>073-081>083-090>101-260800-
SOUTHEAST KANSAS

CITY           SKY/WX    TMP DP  RH WIND       PRES   REMARKS
CHANUTE        CLOUDY    76  73  91 NE5       30.03F
COFFEYVILLE    CLOUDY    75  74  96 NE3       30.01F
HUTCHINSON     PTCLDY    71  68  90 E5        30.07F
MEDICINE LODGE   N/A     73  68  84 CALM      30.06F
NEWTON         CLOUDY    73  71  93 E3        30.07F
PARSONS          N/A    N/A N/A N/A MISG      30.03F
WICHITA INTL   CLOUDY    77  72  84 E5        30.05F
WICHITA JABRA  CLOUDY    73  72  96 NE5       30.05F
WICHITA MCCONL CLOUDY    75  71  88 NE5       30.05F
WINFIELD       CLOUDY    76  73  91 NE3       30.05F
$$

KSZ007>012-019>026-033>040-048>060-102>105-260800-
NORTHEAST KANSAS

CITY           SKY/WX    TMP DP  RH WIND       PRES   REMARKS
CONCORDIA      CLEAR     67  63  87 CALM      30.10F
EMPORIA        CLOUDY    74  72  93 CALM      30.05F
LAWRENCE       PTCLDY    71  67  87 CALM      30.05S
MANHATTAN      CLEAR     68  66  93 CALM      30.07S
MARYSVILLE     CLEAR     64  63  94 N3        30.09S
OLATHE IND     CLOUDY    76  69  79 E3        30.06S
OLATHE EXE     CLOUDY    74  68  81 E5        30.06R
SALINA         CLEAR     72  68  87 NW5       30.08S
TOPEKA BILLARD MOCLDY    71  67  87 CALM      30.05F
TOPEKA FORBES  MOCLDY    73  68  84 NE3       30.06S
$$



USA.gov is the U.S. government's official web portal to all federal, state and local government web resources and services.